FLA576 KMIA-KCHS

Flight info

Callsign FLA576
Flight time N/A
Altitude 31000
Route DHP V3 PBI OMN SAV
Aircraft B732/M-VW/C

Departure

Time 2026-05-05 03:47
Airport Miami International Airport (KMIA)

Arrival

Time N/A
Airport Charleston International Airport (KCHS)
Time Latitude Longitude Altitude Speed Heading
2026-05-05 03:29 25.79289 -80.28172 15 ft 0 kts 168°
2026-05-05 03:31 25.79291 -80.28172 15 ft 2 kts 168°
2026-05-05 03:32 25.79306 -80.28175 15 ft 2 kts 168°
2026-05-05 03:32 25.79321 -80.28179 15 ft 2 kts 168°
2026-05-05 03:32 25.79335 -80.28182 15 ft 2 kts 176°
2026-05-05 03:32 25.79350 -80.28181 15 ft 2 kts 197°
2026-05-05 03:33 25.79363 -80.28173 15 ft 2 kts 217°
2026-05-05 03:33 25.79374 -80.28162 15 ft 2 kts 236°
2026-05-05 03:33 25.79378 -80.28153 15 ft 0 kts 245°
2026-05-05 03:36 25.79367 -80.28181 15 ft 9 kts 246°
2026-05-05 03:36 25.79342 -80.28247 15 ft 9 kts 245°
2026-05-05 03:37 25.79305 -80.28305 15 ft 9 kts 230°
2026-05-05 03:37 25.79261 -80.28352 15 ft 8 kts 221°
2026-05-05 03:37 25.79214 -80.28392 15 ft 8 kts 206°
2026-05-05 03:37 25.79159 -80.28418 15 ft 8 kts 200°
2026-05-05 03:38 25.79106 -80.28445 15 ft 8 kts 208°
2026-05-05 03:38 25.79059 -80.28479 15 ft 8 kts 217°
2026-05-05 03:38 25.79013 -80.28516 15 ft 8 kts 214°
2026-05-05 03:38 25.78967 -80.28549 15 ft 7 kts 213°
2026-05-05 03:39 25.78924 -80.28585 15 ft 7 kts 219°
2026-05-05 03:39 25.78883 -80.28622 15 ft 6 kts 228°
2026-05-05 03:39 25.78869 -80.28674 15 ft 8 kts 270°
2026-05-05 03:39 25.78867 -80.28753 16 ft 12 kts 268°
2026-05-05 03:40 25.78861 -80.28860 15 ft 14 kts 258°
2026-05-05 03:40 25.78835 -80.28966 16 ft 14 kts 256°
2026-05-05 03:40 25.78820 -80.29074 16 ft 13 kts 272°
2026-05-05 03:40 25.78818 -80.29178 15 ft 13 kts 267°
2026-05-05 03:41 25.78814 -80.29283 15 ft 13 kts 268°
2026-05-05 03:41 25.78811 -80.29385 15 ft 13 kts 268°
2026-05-05 03:41 25.78806 -80.29485 15 ft 12 kts 266°
2026-05-05 03:41 25.78800 -80.29584 15 ft 12 kts 266°
2026-05-05 03:42 25.78795 -80.29683 15 ft 12 kts 267°
2026-05-05 03:42 25.78791 -80.29784 15 ft 13 kts 267°
2026-05-05 03:42 25.78787 -80.29884 14 ft 13 kts 268°
2026-05-05 03:42 25.78784 -80.29989 14 ft 13 kts 268°
2026-05-05 03:43 25.78779 -80.30098 13 ft 14 kts 265°
2026-05-05 03:43 25.78772 -80.30206 13 ft 14 kts 266°
2026-05-05 03:43 25.78756 -80.30281 12 ft 0 kts 226°
2026-05-05 03:45 25.78756 -80.30282 12 ft 0 kts 227°
2026-05-05 03:46 25.78714 -80.30296 12 ft 11 kts 182°
2026-05-05 03:46 25.78661 -80.30276 13 ft 0 kts 91°
2026-05-05 03:47 25.78663 -80.30190 13 ft 38 kts 88°
2026-05-05 03:47 25.78687 -80.29605 15 ft 112 kts 87°
2026-05-05 03:47 25.78730 -80.28520 140 ft 160 kts 88°
2026-05-05 03:47 25.78757 -80.27219 735 ft 175 kts 89°
2026-05-05 03:48 25.78814 -80.25894 1546 ft 177 kts 80°
2026-05-05 03:48 25.79236 -80.24586 2263 ft 188 kts 58°
2026-05-05 03:48 25.80129 -80.23493 2965 ft 201 kts 37°
2026-05-05 03:48 25.81330 -80.22742 3893 ft 201 kts 20°
2026-05-05 03:49 25.82649 -80.22364 4788 ft 202 kts
2026-05-05 03:49 25.84078 -80.22250 5540 ft 211 kts
2026-05-05 03:49 25.85530 -80.22360 6326 ft 218 kts 348°
2026-05-05 03:49 25.86977 -80.22920 7016 ft 228 kts 333°
2026-05-05 03:50 25.88375 -80.23734 7886 ft 231 kts 332°
2026-05-05 03:50 25.89821 -80.24601 8416 ft 249 kts 331°
2026-05-05 03:50 25.91373 -80.25547 9086 ft 260 kts 331°
2026-05-05 03:50 25.92985 -80.26535 9848 ft 268 kts 331°
2026-05-05 03:51 25.94647 -80.27437 10607 ft 273 kts 346°
2026-05-05 03:51 25.96534 -80.27442 11387 ft 276 kts 16°
2026-05-05 03:51 25.98205 -80.26424 12181 ft 278 kts 39°
2026-05-05 03:51 25.99623 -80.25005 12954 ft 280 kts 44°
2026-05-05 03:52 26.00995 -80.23476 13693 ft 283 kts 45°
2026-05-05 03:52 26.02377 -80.21893 14405 ft 287 kts 45°
2026-05-05 03:52 26.03929 -80.20486 15089 ft 290 kts 34°
2026-05-05 03:52 26.05629 -80.19259 15764 ft 293 kts 32°
2026-05-05 03:53 26.07353 -80.18090 16414 ft 296 kts 28°
2026-05-05 03:53 26.09329 -80.17368 17046 ft 299 kts 11°
2026-05-05 03:53 26.11345 -80.16837 17664 ft 302 kts 15°
2026-05-05 03:53 26.13354 -80.16187 18263 ft 305 kts 17°
2026-05-05 03:54 26.15392 -80.15514 18846 ft 308 kts 12°
2026-05-05 03:54 26.17517 -80.15202 19411 ft 310 kts
2026-05-05 03:54 26.19652 -80.14970 19961 ft 313 kts
2026-05-05 03:54 26.21835 -80.14694 20503 ft 316 kts
2026-05-05 03:55 26.24016 -80.14401 21027 ft 318 kts
2026-05-05 03:55 26.26195 -80.14101 21531 ft 321 kts
2026-05-05 03:55 26.28416 -80.13789 22027 ft 323 kts
2026-05-05 03:55 26.30666 -80.13471 22511 ft 326 kts
2026-05-05 03:56 26.32894 -80.13155 22974 ft 328 kts
2026-05-05 03:56 26.35181 -80.12832 23433 ft 331 kts
2026-05-05 03:56 26.37461 -80.12508 23876 ft 333 kts
2026-05-05 03:56 26.39745 -80.12183 24304 ft 335 kts
2026-05-05 03:57 26.42063 -80.11852 24723 ft 338 kts
2026-05-05 03:57 26.44405 -80.11559 25123 ft 340 kts 360°
2026-05-05 03:57 26.46746 -80.11944 25501 ft 342 kts 349°
2026-05-05 03:57 26.49089 -80.12415 25887 ft 344 kts 349°
2026-05-05 03:58 26.51454 -80.12927 26267 ft 346 kts 349°
2026-05-05 03:58 26.53840 -80.13142 26600 ft 348 kts
2026-05-05 03:58 26.56108 -80.12296 26913 ft 350 kts 31°
2026-05-05 03:58 26.58150 -80.10803 27246 ft 352 kts 26°
2026-05-05 03:59 26.60482 -80.09996 27558 ft 354 kts
2026-05-05 03:59 26.62906 -80.09789 27881 ft 356 kts
2026-05-05 03:59 26.65399 -80.09848 28209 ft 357 kts 358°
2026-05-05 03:59 26.67901 -80.09976 28529 ft 359 kts 357°
2026-05-05 04:00 26.70371 -80.10120 28834 ft 361 kts 357°
2026-05-05 04:00 26.72868 -80.10270 29133 ft 363 kts 356°
2026-05-05 04:00 26.75315 -80.10963 29382 ft 364 kts 333°
2026-05-05 04:00 26.77422 -80.12552 29645 ft 366 kts 327°
2026-05-05 04:01 26.79691 -80.13771 29898 ft 367 kts 341°
2026-05-05 04:01 26.82124 -80.14645 30171 ft 369 kts 342°
2026-05-05 04:01 26.84560 -80.15558 30439 ft 371 kts 341°
2026-05-05 04:01 26.87013 -80.16498 30700 ft 372 kts 341°
2026-05-05 04:02 26.89439 -80.17439 30921 ft 375 kts 341°
2026-05-05 04:02 26.91923 -80.18411 30987 ft 382 kts 341°
2026-05-05 04:02 26.97027 -80.20431 31014 ft 398 kts 340°
2026-05-05 04:03 27.02318 -80.22558 31008 ft 414 kts 340°
2026-05-05 04:03 27.07834 -80.24800 31006 ft 429 kts 340°
2026-05-05 04:04 27.13490 -80.27099 31005 ft 442 kts 340°
2026-05-05 04:04 27.19333 -80.29475 31005 ft 454 kts 340°
2026-05-05 04:05 27.25330 -80.31937 31004 ft 464 kts 340°
2026-05-05 04:05 27.31431 -80.34463 31004 ft 474 kts 340°
2026-05-05 04:06 27.37658 -80.37052 31003 ft 481 kts 340°
2026-05-05 04:06 27.43909 -80.39659 30996 ft 479 kts 340°
2026-05-05 04:07 27.50163 -80.42270 30999 ft 479 kts 340°
2026-05-05 04:07 27.56391 -80.44869 31000 ft 479 kts 340°
2026-05-05 04:08 27.62635 -80.47472 31000 ft 480 kts 340°
2026-05-05 04:08 27.68885 -80.49972 30999 ft 480 kts 343°
2026-05-05 04:09 27.75299 -80.52103 31000 ft 480 kts 344°
2026-05-05 04:09 27.81694 -80.54150 31000 ft 480 kts 345°
2026-05-05 04:10 27.88104 -80.56194 31000 ft 480 kts 344°
2026-05-05 04:10 27.94493 -80.58253 31000 ft 480 kts 344°
2026-05-05 04:11 28.00907 -80.60339 31000 ft 480 kts 344°
2026-05-05 04:11 28.07278 -80.62412 31000 ft 480 kts 344°
2026-05-05 04:12 28.13661 -80.64553 30995 ft 480 kts 339°
2026-05-05 04:12 28.19798 -80.67576 30999 ft 480 kts 336°
2026-05-05 04:13 28.26053 -80.69971 31000 ft 480 kts 346°
2026-05-05 04:13 28.32481 -80.71955 31000 ft 480 kts 342°
2026-05-05 04:14 28.38815 -80.74301 31000 ft 480 kts 341°
2026-05-05 04:14 28.45087 -80.76758 31000 ft 480 kts 340°
2026-05-05 04:15 28.51390 -80.79279 31000 ft 481 kts 340°
2026-05-05 04:15 28.57703 -80.81823 31000 ft 481 kts 340°
2026-05-05 04:16 28.63971 -80.84353 31000 ft 481 kts 340°
2026-05-05 04:16 28.70262 -80.86887 30999 ft 479 kts 340°
2026-05-05 04:17 28.76525 -80.89400 30999 ft 477 kts 340°
2026-05-05 04:17 28.82761 -80.91892 30999 ft 476 kts 341°
2026-05-05 04:18 28.88984 -80.94373 30999 ft 475 kts 341°
2026-05-05 04:18 28.95179 -80.97051 30999 ft 474 kts 338°
2026-05-05 04:19 29.01318 -80.99684 30999 ft 473 kts 341°
2026-05-05 04:19 29.07555 -81.01990 30999 ft 473 kts 342°
2026-05-05 04:20 29.13817 -81.04309 30999 ft 472 kts 341°
2026-05-05 04:20 29.19960 -81.06831 30999 ft 472 kts 339°
2026-05-05 04:21 29.26109 -81.09460 30999 ft 472 kts 340°
2026-05-05 04:21 29.32218 -81.12043 30999 ft 471 kts 340°
2026-05-05 04:22 29.38393 -81.14651 30999 ft 471 kts 340°
2026-05-05 04:22 29.44534 -81.17243 30999 ft 471 kts 340°
2026-05-05 04:23 29.50736 -81.19502 30999 ft 471 kts 346°
2026-05-05 04:23 29.57081 -81.21353 31000 ft 471 kts 345°
2026-05-05 04:24 29.63313 -81.23404 30999 ft 467 kts 343°
2026-05-05 04:24 29.66362 -81.24461 30729 ft 455 kts 343°
2026-05-05 04:25 29.72432 -81.26646 29045 ft 458 kts 342°
2026-05-05 04:25 29.75423 -81.27753 28291 ft 457 kts 342°
2026-05-05 04:25 29.78417 -81.28876 27619 ft 454 kts 342°
2026-05-05 04:25 29.81405 -81.30011 27025 ft 449 kts 342°
2026-05-05 04:26 29.84326 -81.31130 26460 ft 443 kts 342°
2026-05-05 04:26 29.87210 -81.32242 25878 ft 439 kts 341°
2026-05-05 04:26 29.90066 -81.33413 25266 ft 435 kts 338°
2026-05-05 04:26 29.92852 -81.34745 24646 ft 431 kts 338°
2026-05-05 04:27 29.95591 -81.36005 24043 ft 428 kts 339°
2026-05-05 04:27 29.98375 -81.37196 23445 ft 424 kts 340°
2026-05-05 04:27 30.01133 -81.38289 22861 ft 420 kts 342°
2026-05-05 04:27 30.03885 -81.39317 22280 ft 416 kts 342°
2026-05-05 04:28 30.06622 -81.40305 21700 ft 412 kts 343°
2026-05-05 04:28 30.09321 -81.41273 21125 ft 409 kts 343°
2026-05-05 04:28 30.12040 -81.42251 20544 ft 405 kts 343°
2026-05-05 04:28 30.14699 -81.43234 19974 ft 402 kts 342°
2026-05-05 04:29 30.17295 -81.44238 19415 ft 399 kts 341°
2026-05-05 04:29 30.19906 -81.45283 18850 ft 395 kts 341°
2026-05-05 04:29 30.22478 -81.46333 18291 ft 392 kts 341°
2026-05-05 04:29 30.25024 -81.47375 17737 ft 389 kts 341°
2026-05-05 04:30 30.27558 -81.48405 17184 ft 386 kts 341°
2026-05-05 04:30 30.30075 -81.49419 16611 ft 380 kts 341°
2026-05-05 04:30 30.32523 -81.50403 15778 ft 376 kts 341°
2026-05-05 04:30 30.34960 -81.51381 14907 ft 372 kts 341°
2026-05-05 04:31 30.37383 -81.52353 14042 ft 369 kts 341°
2026-05-05 04:31 30.39744 -81.53418 13193 ft 364 kts 331°
2026-05-05 04:31 30.41632 -81.55291 12360 ft 360 kts 308°
2026-05-05 04:31 30.42729 -81.57825 11542 ft 355 kts 285°
2026-05-05 04:32 30.42901 -81.60649 10723 ft 350 kts 265°
2026-05-05 04:32 30.42564 -81.63347 10166 ft 331 kts 260°
2026-05-05 04:32 30.42147 -81.65857 10028 ft 302 kts 258°
2026-05-05 04:32 30.41746 -81.68143 9889 ft 279 kts 258°
2026-05-05 04:33 30.41360 -81.70330 9243 ft 278 kts 258°
2026-05-05 04:33 30.40970 -81.72532 8523 ft 279 kts 258°
2026-05-05 04:33 30.40583 -81.74717 7823 ft 279 kts 258°
2026-05-05 04:33 30.40194 -81.76910 7166 ft 277 kts 258°
2026-05-05 04:34 30.39815 -81.79054 6559 ft 274 kts 258°
2026-05-05 04:34 30.39437 -81.81197 5960 ft 271 kts 258°
2026-05-05 04:34 30.39062 -81.83323 5353 ft 268 kts 258°
2026-05-05 04:34 30.38697 -81.85400 4749 ft 266 kts 258°
2026-05-05 04:35 30.38327 -81.87501 4205 ft 260 kts 258°
2026-05-05 04:35 30.37989 -81.89473 4038 ft 242 kts 263°
2026-05-05 04:35 30.38254 -81.91274 3989 ft 219 kts 301°
2026-05-05 04:35 30.39297 -81.92410 3967 ft 197 kts 332°
2026-05-05 04:36 30.40476 -81.93027 3952 ft 179 kts 339°
2026-05-05 04:36 30.41585 -81.93504 3930 ft 161 kts 340°
2026-05-05 04:36 30.42658 -81.93948 3922 ft 169 kts 340°
2026-05-05 04:36 30.43800 -81.94408 3991 ft 183 kts 347°
2026-05-05 04:37 30.45075 -81.94215 4024 ft 193 kts 32°
2026-05-05 04:37 30.45959 -81.93054 3999 ft 193 kts 63°
2026-05-05 04:37 30.46290 -81.91599 3907 ft 186 kts 89°
2026-05-05 04:37 30.46252 -81.90127 3771 ft 183 kts 94°
2026-05-05 04:38 30.46146 -81.88664 3578 ft 182 kts 95°
2026-05-05 04:38 30.46027 -81.87195 3351 ft 182 kts 95°
2026-05-05 04:38 30.45907 -81.85741 3128 ft 183 kts 95°
2026-05-05 04:38 30.45787 -81.84293 3019 ft 175 kts 95°
2026-05-05 04:39 30.45774 -81.82887 2705 ft 176 kts 78°
2026-05-05 04:39 30.46101 -81.81528 2337 ft 175 kts 71°
2026-05-05 04:39 30.46488 -81.80228 2038 ft 165 kts 70°
2026-05-05 04:39 30.46842 -81.79061 1977 ft 144 kts 70°
2026-05-05 04:40 30.47181 -81.77994 1723 ft 142 kts 69°
2026-05-05 04:40 30.47522 -81.76926 1458 ft 137 kts 69°
2026-05-05 04:40 30.47851 -81.75925 1229 ft 132 kts 69°
2026-05-05 04:40 30.48160 -81.74936 967 ft 130 kts 71°
2026-05-05 04:41 30.48429 -81.73937 789 ft 133 kts 72°
2026-05-05 04:41 30.48731 -81.72897 651 ft 138 kts 70°
2026-05-05 04:41 30.49064 -81.71834 466 ft 142 kts 70°
2026-05-05 04:41 30.49388 -81.70767 242 ft 140 kts 71°
2026-05-05 04:42 30.49706 -81.69725 52 ft 131 kts 70°
2026-05-05 04:42 30.49981 -81.68826 28 ft 102 kts 71°
2026-05-05 04:42 30.50154 -81.68250 29 ft 44 kts 76°
2026-05-05 04:42 30.50137 -81.68021 30 ft 22 kts 122°
2026-05-05 04:43 30.50072 -81.67979 29 ft 7 kts 171°
2026-05-05 04:43 30.50012 -81.67969 28 ft 10 kts 185°
2026-05-05 04:43 30.49956 -81.68087 27 ft 26 kts 251°
2026-05-05 04:43 30.49894 -81.68296 26 ft 27 kts 250°
2026-05-05 04:44 30.49832 -81.68452 26 ft 19 kts 208°
2026-05-05 04:44 30.49683 -81.68493 25 ft 24 kts 191°
2026-05-05 04:44 30.49500 -81.68610 25 ft 34 kts 230°
2026-05-05 04:44 30.49365 -81.68615 25 ft 4 kts 126°
2026-05-05 04:45 30.49363 -81.68611 25 ft 0 kts 127°